Flag for Germany Weather past 2 weeks in Wesseling, North Rhine-Westphalia, Germany

Now
47 °F

Overcast.


Feels Like: 47 °F
Forecast: 45 / 58 °F
Wind: 1 mph from South

Location: Koeln / Bonn

Current Time: Oct 23, 2014 at 9:03:00 AM

Latest Report: Oct 23, 2014 at 8:00 AM


Visibility: 9 mi

Pressure: 30.23 "Hg

Humidity: 94%

Dew point: 45 °F

Location of WesselingLocation

Historic Weather in Wesseling — Graph

°F

Wesseling temperature yesterday

Maximum temperature yesterday: 52 °F (at 4:00 PM)
Minimum temperature yesterday: 44 °F (at 3:00 AM)
Average temperature yesterday: 47 °F

Past Weeks' High & Low Weather Summary

 TemperatureHumidityPressure
High75 °F (Oct 19, 4:00 PM)100% (Oct 11, 8:00 AM)30.23 "Hg (Oct 11, 8:00 AM)
Low44 °F (Oct 22, 3:00 AM)50% (Oct 14, 3:00 PM)29.55 "Hg (Oct 21, 5:00 PM)
Average57 °F84%29.89 "Hg
* Reported Oct 8 8:00 AM — Oct 23 8:00 AM, Wesseling, Weather by CustomWeather, © 2014

Note: Actual official high and low records may vary slightly from our data, if they occured in-between our weather recording intervals... More about our weather records

Advertising

Wesseling weather history for previous 24 hours

 ConditionsComfort  
Time TempWeatherWind HumidityBarometerVisibility
8:00 AM
Oct 23
47 °FOvercast.1 mph94%30.23 "Hg9 mi
7:00 AM47 °FDrizzle. Overcast.1 mph92%30.22 "Hg7 mi
6:00 AM46 °FOvercast.1 mph92%30.21 "Hg11 mi
5:00 AM46 °FOvercast.1 mph90%30.21 "Hg12 mi
4:00 AM44 °FFog.3 mph94%30.22 "Hg12 mi
3:00 AM46 °FOvercast.3 mph94%30.22 "Hg16 mi
2:00 AM46 °FOvercast.2 mph90%30.20 "Hg16 mi
1:00 AM47 °FOvercast.1 mph90%30.20 "Hg19 mi
12:00 AM48 °FOvercast.2 mph88%30.20 "Hg19 mi
11:00 PM
Oct 22
48 °FOvercast.5 mph87%30.20 "Hg22 mi
10:00 PM48 °FOvercast.5 mph87%30.18 "Hg19 mi
9:00 PM48 °FLight rain. Overcast.6 mph87%30.16 "Hg25 mi
8:00 PM48 °FPassing clouds.7 mph86%30.14 "Hg19 mi
7:00 PM47 °FPassing clouds.5 mph90%30.12 "Hg19 mi
6:00 PM48 °FSprinkles. Overcast.6 mph88%30.10 "Hg12 mi
5:00 PM51 °FPartly sunny.9 mph78%30.08 "Hg25 mi
4:00 PM52 °FOvercast.10 mph72%30.06 "Hg28 mi
3:00 PM51 °FOvercast.12 mph73%30.05 "Hg25 mi
2:00 PM51 °FOvercast.10 mph76%30.05 "Hg22 mi
1:00 PM49 °FOvercast.8 mph82%30.05 "Hg14 mi
12:00 PM47 °FSprinkles. Overcast.8 mph86%30.06 "Hg11 mi
11:00 AM46 °FLight rain. Overcast.7 mph90%30.05 "Hg7 mi
10:00 AM44 °FLight rain. Overcast.7 mph93%30.04 "Hg7 mi
9:00 AM46 °FOvercast.7 mph83%30.01 "Hg16 mi
Weather by CustomWeather, © 2014

See weather overviewHow to use our weather pages